SCP
1 1 0 0 0 0 0 0 1 1 1 1 1 0 0 0 0 1 0 0 0 0 0 0 0 0 0 0 0 0 0 0 0 0 0 1 1 1 1 0 0 0 0
1 1 0 0 0 0 0 0 1 1 1 1 1 0 0 0 0 0 0 0 0 0 0 0 0 0 0 0 0 0 0 0 0 0 0 0 0 0 0 0 0 0 0
1 1 1 1 1 1 1 1 1 1 1 1 1 1 1 1 0 0 0 0 0 0 0 0 0 0 0 0 0 0 0 0 0 0 0 0 0 0 0 0 0 0 0
0 1 1 1 1 1 1 1 1 1 1 1 1 1 1 1 0 0 0 0 0 0 0 0 0 0 0 0 0 0 0 0 0 0 0 0 0 0 1 0 0 1 1
0 1 1 2 2 2 2 1 1 1 1 1 1 1 1 0 0 0 0 0 0 0 0 0 0 0 0 0 0 0 0 0 0 0 0 0 0 0 1 1 0 1 1
1 1 1 1 2 2 2 2 2 1 1 1 1 1 1 0 0 0 0 0 0 0 0 0 0 0 0 0 0 0 0 0 0 0 0 0 0 0 0 0 0 0 0
1 1 1 1 2 2 2 2 2 2 2 2 2 1 1 1 0 0 0 0 0 0 0 0 0 0 0 0 0 0 0 0 0 0 0 0 0 0 0 0 0 0 0
1 1 2 2 2 3 3 3 3 2 2 2 2 1 1 1 0 0 0 0 0 0 0 0 1 0 0 0 0 0 0 0 0 0 0 0 0 0 0 0 0 0 0
1 2 2 3 3 4 4 3 3 2 2 2 2 1 1 1 0 0 0 0 0 0 0 0 1 0 0 0 0 0 0 0 0 0 0 0 0 0 0 0 0 0 0
2 2 3 4 5 5 4 3 3 2 2 2 2 2 2 1 1 0 0 0 0 0 1 0 0 0 0 0 0 0 0 0 0 0 0 0 0 0 0 0 0 0 0
3 3 4 5 5 5 5 4 3 3 2 2 2 2 2 1 1 0 0 0 0 1 1 1 0 0 0 0 0 0 0 0 0 0 0 0 0 0 0 0 0 0 0
5 4 4 5 5 5 5 5 4 3 2 2 2 2 2 2 1 1 0 0 0 0 0 0 0 0 0 0 0 0 0 0 0 0 0 0 0 0 0 0 0 0 0
6 6 5 5 5 5 5 4 3 3 2 2 2 2 2 2 1 1 0 0 0 0 0 0 0 0 0 0 0 0 0 0 0 0 0 0 0 0 0 1 1 1 1
7 7 6 5 5 6 5 3 3 3 2 2 2 2 2 2 1 1 0 0 0 0 0 0 0 0 0 0 0 0 0 0 0 0 0 0 0 0 1 1 1 1 1
7 7 5 4 5 5 4 3 3 2 2 2 1 1 1 1 1 0 0 0 0 0 0 0 0 0 0 0 0 0 0 0 0 0 0 0 0 0 0 1 1 1 1
7 6 4 4 4 4 4 3 2 2 1 1 1 0 0 0 0 0 0 0 0 0 0 0 0 0 0 0 0 0 0 0 0 0 0 0 0 0 0 1 1 1 1
6 5 3 3 3 3 3 3 2 1 1 1 0 0 0 0 0 0 0 0 0 0 0 0 0 0 0 0 0 0 0 0 0 0 0 0 0 0 0 1 1 1 0
5 4 3 3 2 2 2 2 2 2 2 1 1 0 0 0 0 0 0 0 0 0 0 0 0 0 0 0 0 0 0 0 0 0 0 0 0 0 0 0 0 0 0
3 3 2 2 2 2 2 1 1 1 1 2 1 1 0 0 0 0 0 0 0 0 0 0 0 0 0 0 0 0 0 0 0 0 0 0 0 0 0 0 0 0 0
2 2 1 1 1 1 1 1 1 1 1 1 1 1 1 0 0 0 0 0 0 0 0 0 0 0 0 0 0 0 0 0 0 0 0 0 0 0 0 0 0 0 0
1 1 1 1 1 1 1 1 1 1 1 1 1 1 1 1 0 1 1 1 0 0 0 0 0 0 0 0 0 0 0 0 0 0 0 0 0 0 0 0 0 0 0
0 0 1 1 1 1 0 0 1 1 1 1 1 1 1 1 1 1 1 1 1 1 0 0 0 0 0 0 0 0 0 0 0 0 0 0 0 0 0 0 0 0 0
0 0 0 0 0 0 0 0 0 1 1 1 1 1 1 1 1 1 1 1 1 1 0 0 0 0 0 0 0 0 0 0 0 0 0 0 0 0 0 0 0 0 0
0 0 0 0 0 0 0 0 1 0 1 1 1 1 1 1 1 1 1 1 1 0 0 0 0 0 0 0 0 0 0 0 0 0 0 0 0 0 0 0 0 0 0
0 0 0 0 0 0 0 0 0 0 0 1 1 1 1 1 1 1 1 1 0 0 0 0 0 0 0 0 0 0 0 0 0 0 0 0 0 0 0 0 0 0 0
0 0 0 0 0 0 0 0 0 0 0 0 0 1 1 1 1 1 1 0 0 0 0 0 0 0 0 0 0 0 0 0 0 0 0 0 0 0 0 0 0 0 0
Wind_Speed
4 3 1 1 2 3 3 4 4 4 4 5 5 5 5 5 5 5 6 6 6 6 6 6 6 6 4 4 4 4 4 4 6 6 5 4 4 4 3 3 4 5 5
5 4 4 4 4 4 4 3 3 4 4 5 5 5 6 6 5 5 6 6 6 6 6 6 6 6 6 5 5 5 5 5 5 7 6 5 6 5 5 5 5 5 5
6 6 5 5 4 4 3 3 4 4 5 5 5 5 6 6 6 6 6 6 6 6 6 7 6 6 6 5 5 5 5 7 5 5 6 5 5 5 5 5 6 4 5
5 5 5 4 4 3 3 3 4 4 5 5 5 6 6 6 7 7 6 6 6 6 6 7 7 7 7 7 6 6 6 6 6 6 6 5 5 6 4 5 5 4 4
4 4 4 4 4 3 4 4 4 4 6 5 5 5 6 7 7 4 4 6 5 6 6 7 8 9 9 8 8 6 5 5 5 5 6 5 5 4 4 4 5 4 3
5 4 4 3 3 4 4 5 5 4 5 5 6 6 7 8 1 1 3 5 6 7 7 7 8 9 11 14 15 13 10 8 7 6 6 6 6 5 4 4 4 4 3
6 5 5 5 5 4 5 4 4 4 5 5 5 6 7 7 6 6 7 5 7 7 8 7 9 11 8 6 8 12 14 16 15 9 9 9 8 7 6 6 5 5 4
7 7 6 5 5 4 4 4 4 4 4 5 6 6 7 8 8 8 9 7 8 9 9 9 9 9 10 7 7 7 7 9 11 11 11 11 10 8 6 6 6 6 5
8 7 7 6 5 4 4 4 4 4 5 6 7 7 7 7 7 9 9 6 7 9 10 10 9 8 8 8 6 7 7 7 11 14 15 14 15 14 9 5 5 5 6
8 7 6 5 4 4 4 4 5 4 6 7 7 6 7 7 7 10 11 6 7 7 7 7 10 9 7 7 6 6 8 7 7 9 8 10 11 12 13 9 7 7 6
7 6 5 5 5 5 6 5 5 6 7 7 7 7 8 9 10 11 13 7 7 7 6 6 4 2 4 7 7 7 9 7 7 8 8 7 7 7 8 9 9 9 8
5 5 5 5 6 6 5 5 5 6 7 8 8 9 8 8 8 10 14 15 11 7 7 6 3 2 4 7 8 10 11 8 7 8 8 8 7 7 7 8 9 10 9
5 5 5 5 5 5 5 7 7 7 8 8 7 6 4 3 4 9 13 15 14 9 8 9 9 10 9 9 14 15 11 8 8 9 9 8 7 7 6 6 7 7 8
6 6 6 6 7 7 7 7 8 7 7 5 5 4 4 3 2 3 4 7 10 10 9 10 12 14 13 12 11 9 9 9 9 9 8 7 6 5 5 5 5 5 5
7 6 7 8 9 8 8 8 9 7 7 6 5 5 5 5 1 2 2 4 4 3 4 6 8 8 7 7 7 8 7 8 9 9 8 7 6 6 5 5 5 5 5
6 7 7 8 8 8 7 8 14 14 13 14 13 10 7 8 8 8 8 7 6 4 4 8 9 8 8 7 7 7 7 7 8 8 7 7 7 6 6 5 5 5 6
7 7 7 8 8 7 7 7 6 8 13 14 15 16 15 13 12 11 10 8 7 5 6 9 9 9 8 7 7 7 7 7 7 7 7 7 7 6 6 6 5 5 6
8 9 9 8 9 9 7 7 6 6 5 5 11 17 18 18 17 16 10 4 7 7 8 9 9 8 7 7 7 7 6 6 6 6 6 6 7 6 6 6 6 7 6
9 8 8 9 9 8 7 7 7 7 6 6 4 6 13 15 14 13 7 6 9 8 7 7 7 6 6 6 6 6 6 6 6 6 6 6 6 6 6 6 6 8 7
9 12 11 9 10 9 8 7 7 6 6 6 5 5 3 5 5 6 7 8 8 8 7 6 5 5 5 5 5 5 6 6 6 5 6 6 6 6 7 8 6 6 6
10 11 13 11 9 9 8 8 7 6 5 5 5 2 1 3 5 5 4 5 6 6 5 5 5 5 4 4 5 6 7 6 5 5 5 5 5 6 6 6 6 6 5
10 11 11 11 9 8 8 7 7 6 6 6 5 3 5 5 5 4 3 3 3 3 3 4 5 4 4 4 4 4 5 5 5 4 4 5 5 6 6 6 6 6 6
11 12 12 11 10 10 9 8 7 6 6 6 5 4 3 4 4 3 3 3 3 3 3 3 4 4 3 4 4 4 5 5 4 5 4 4 5 5 5 5 7 7 7
13 14 13 12 11 10 9 7 6 6 6 5 5 3 2 3 3 3 3 2 2 3 3 3 3 5 6 5 4 4 3 4 5 5 6 5 5 4 5 5 6 7 7
13 12 12 11 11 10 8 7 6 6 5 5 4 2 1 1 2 3 2 2 3 4 4 4 3 4 6 7 7 5 4 4 5 6 6 5 6 6 5 6 5 6 6
12 11 10 9 9 9 8 7 7 6 4 4 3 2 2 2 2 3 2 2 3 3 4 4 5 6 7 5 6 6 4 4 5 6 6 6 6 6 6 5 6 6 6
Wind_Direction
201 200 240 254 267 266 254 256 265 275 284 280 276 276 275 273 267 259 258 263 263 262 266 267 262 261 263 273 278 275 271 267 272 279 280 284 274 270 244 237 246 235 238
189 186 202 222 238 250 263 271 280 280 281 284 283 283 283 283 281 273 268 271 270 271 269 268 269 269 261 256 262 268 269 268 267 274 278 281 273 260 248 238 248 251 241
181 185 200 214 230 236 254 268 274 280 281 283 285 285 285 286 281 273 266 265 265 268 271 271 270 270 270 264 264 267 273 275 273 273 276 274 274 266 260 252 246 243 248
184 192 202 213 231 242 252 259 267 275 278 275 275 279 281 282 278 273 270 266 264 265 266 267 266 264 263 262 264 257 261 269 275 274 271 267 265 262 253 250 253 235 237
188 206 211 213 221 233 244 252 261 267 277 280 284 282 281 278 277 294 294 287 292 291 283 275 269 266 261 257 261 261 269 271 275 279 277 276 269 270 267 261 258 252 234
194 219 221 220 233 240 244 246 249 257 269 273 274 280 281 283 313 291 281 298 295 288 283 280 279 270 257 245 243 246 248 254 262 269 276 278 284 290 298 300 291 278 268
192 212 220 219 230 237 253 263 270 274 274 272 273 275 276 277 264 247 244 265 277 276 276 276 278 279 289 275 254 246 246 246 243 248 261 268 277 287 304 304 301 296 279
199 209 215 219 232 235 243 256 262 267 271 274 272 273 271 273 259 239 235 248 267 268 266 264 263 265 271 272 274 266 256 251 242 237 241 249 256 261 270 280 284 287 274
205 207 212 217 226 234 247 255 262 265 268 270 271 267 267 267 249 232 222 253 264 269 266 266 262 260 257 248 251 260 265 265 264 254 237 238 241 247 249 264 271 275 278
209 204 205 206 218 233 243 251 259 261 266 269 268 267 270 272 256 229 210 243 265 272 274 270 267 261 250 230 239 255 264 269 278 287 274 258 250 247 237 232 242 253 262
203 199 201 204 212 224 233 235 243 256 263 267 273 271 263 258 253 232 213 230 254 272 282 290 299 293 237 233 238 250 260 276 286 280 275 266 253 245 238 227 220 227 239
199 203 207 211 230 238 227 233 242 253 262 261 259 258 255 247 236 222 212 219 238 260 272 280 291 227 247 248 245 251 256 264 266 266 263 259 253 247 241 234 224 219 222
205 212 218 222 224 233 240 244 246 245 250 257 260 262 264 254 217 209 211 221 230 241 262 279 289 273 261 254 248 249 249 247 249 253 255 255 251 248 246 246 238 226 225
213 218 222 228 233 230 231 238 245 249 252 256 268 280 282 275 246 183 198 220 232 239 255 270 268 259 252 254 260 247 233 237 241 248 254 257 260 257 249 241 238 226 220
222 228 233 240 245 241 232 233 239 244 246 248 262 273 280 282 219 165 261 281 295 330 315 285 278 273 262 250 247 245 239 232 235 242 249 253 254 251 247 241 234 225 218
238 240 245 248 249 246 241 241 231 231 234 224 225 235 252 253 251 242 243 249 257 262 273 271 273 273 272 267 262 259 248 240 237 235 238 243 245 244 241 236 229 223 220
253 260 263 265 265 259 255 252 254 241 233 230 230 233 236 250 258 260 260 266 262 223 243 260 263 265 268 269 265 262 259 250 239 235 235 236 238 239 237 233 225 222 220
274 270 265 263 264 264 262 260 256 260 256 241 230 230 235 239 246 252 257 272 264 227 236 250 258 261 264 267 267 265 262 258 246 237 234 234 233 233 235 232 224 219 217
297 285 276 271 267 265 262 262 261 261 261 261 256 227 225 232 240 248 229 235 257 263 259 257 260 264 265 266 265 266 264 258 248 238 234 231 232 232 232 232 228 221 218
301 291 288 283 277 271 265 262 260 256 257 256 258 264 223 202 223 228 210 226 246 259 266 272 277 278 279 276 271 268 266 262 254 244 240 233 231 231 232 230 227 220 212
310 307 303 292 281 277 273 271 272 266 263 262 267 268 234 259 264 263 242 229 245 260 267 277 279 278 279 279 275 270 270 268 260 249 241 236 233 231 231 230 225 219 209
313 307 305 302 297 288 281 275 272 274 277 277 277 247 203 239 264 272 280 275 275 276 278 281 287 291 292 292 291 285 278 272 269 261 250 243 236 233 228 225 221 214 210
314 311 308 304 298 288 278 272 267 267 266 264 266 262 233 243 260 270 274 283 292 292 296 296 294 297 301 300 295 288 284 283 282 278 266 255 243 238 229 223 220 212 209
311 306 303 302 298 297 295 291 288 284 281 275 263 255 256 262 268 276 285 290 296 294 291 287 290 301 307 303 296 295 304 315 309 289 273 262 254 242 234 228 226 217 209
312 313 314 311 308 306 306 309 307 301 297 292 281 276 276 286 300 298 292 295 305 302 299 294 284 288 293 293 296 302 317 314 307 306 288 268 256 246 238 232 225 220 207
316 321 325 326 326 326 325 326 324 316 314 311 311 317 327 353 335 319 321 313 309 306 306 305 304 309 311 307 307 308 303 294 293 292 285 275 264 250 242 235 229 221 209